• In Belgium
  • List of Countries
  • For 7 days
  • Water Temperature
  • Satellite Maps
  • Weather Map
  • Weather Widgets
  • user-avatar
    Login

    Hourly Weather York

    Today, 25 September, Tuesday

    Time Temperature Precipitation Wind Pressure Humidity
    00:00 +8°C° 0 mm 2 mps 777 mmHg 84%
    01:00 +7°C° 0 mm 2 mps 777 mmHg 84%
    02:00 +7°C° 0 mm 2 mps 776 mmHg 84%
    03:00 +7°C° 0 mm 2 mps 776 mmHg 84%
    04:00 +7°C° 0 mm 2 mps 776 mmHg 85%
    05:00 +7°C° 0 mm 2 mps 776 mmHg 85%
    06:00 +6°C° 0 mm 2 mps 776 mmHg 86%
    07:00 +8°C° 0 mm 3 mps 776 mmHg 80%
    08:00 +8°C° 0 mm 4 mps 776 mmHg 73%
    09:00 +11°C° 0 mm 4 mps 776 mmHg 67%
    10:00 +12°C° 0 mm 5 mps 775 mmHg 64%
    11:00 +13°C° 0 mm 6 mps 775 mmHg 61%
    12:00 +14°C° 0 mm 6 mps 774 mmHg 58%
    13:00 +15°C° 0 mm 6 mps 774 mmHg 57%
    14:00 +15°C° 0 mm 6 mps 773 mmHg 57%
    15:00 +15°C° 0 mm 7 mps 773 mmHg 57%
    16:00 +14°C° 0 mm 6 mps 772 mmHg 61%
    17:00 +14°C° 0 mm 6 mps 772 mmHg 66%
    18:00 +13°C° 0 mm 5 mps 772 mmHg 70%
    19:00 +13°C° 0 mm 6 mps 772 mmHg 71%
    20:00 +11°C° 0 mm 6 mps 772 mmHg 71%
    21:00 +11°C° 0 mm 6 mps 772 mmHg 72%
    22:00 +11°C° 0 mm 6 mps 771 mmHg 72%
    23:00 +11°C° 0 mm 7 mps 771 mmHg 72%

    Tomorrow, 26 September, Wednesday

    Time Temperature Precipitation Wind Pressure Humidity
    00:00 +11°C° 0 mm 7 mps 771 mmHg 72%
    01:00 +11°C° 0 mm 7 mps 771 mmHg 73%
    02:00 +11°C° 0 mm 7 mps 770 mmHg 74%
    03:00 +11°C° 0 mm 7 mps 770 mmHg 75%
    04:00 +11°C° 0 mm 7 mps 770 mmHg 76%
    05:00 +12°C° 0 mm 7 mps 770 mmHg 77%
    06:00 +12°C° 0 mm 7 mps 770 mmHg 78%
    07:00 +14°C° 0 mm 7 mps 770 mmHg 77%
    08:00 +15°C° 0 mm 7 mps 770 mmHg 77%
    09:00 +16°C° 0 mm 7 mps 770 mmHg 76%
    10:00 +17°C° 0 mm 7 mps 770 mmHg 75%
    11:00 +18°C° 0 mm 7 mps 770 mmHg 74%
    12:00 +20°C° 0 mm 7 mps 770 mmHg 73%
    13:00 +20°C° 0 mm 7 mps 770 mmHg 74%
    14:00 +20°C° 0 mm 6 mps 770 mmHg 75%
    15:00 +20°C° 0 mm 6 mps 770 mmHg 76%
    16:00 +19°C° 0 mm 5 mps 770 mmHg 78%
    17:00 +17°C° 0 mm 5 mps 770 mmHg 81%
    18:00 +17°C° 0 mm 4 mps 770 mmHg 84%
    19:00 +17°C° 0 mm 4 mps 770 mmHg 86%
    20:00 +16°C° 0 mm 3 mps 771 mmHg 89%
    21:00 +16°C° 0 mm 3 mps 771 mmHg 91%
    22:00 +14°C° 0 mm 3 mps 771 mmHg 92%
    23:00 +14°C° 0 mm 3 mps 771 mmHg 92%

    Day after tomorrow, 27 September, Thursday

    Time Temperature Precipitation Wind Pressure Humidity
    00:00 +14°C° 0 mm 3 mps 770 mmHg 92%
    01:00 +13°C° 0 mm 3 mps 770 mmHg 92%
    02:00 +13°C° 0 mm 3 mps 770 mmHg 92%
    03:00 +13°C° 0 mm 3 mps 770 mmHg 92%
    04:00 +13°C° 0 mm 3 mps 769 mmHg 91%
    05:00 +13°C° 0 mm 3 mps 769 mmHg 90%
    06:00 +12°C° 0 mm 3 mps 768 mmHg 89%
    07:00 +14°C° 0 mm 3 mps 768 mmHg 82%
    08:00 +15°C° 0 mm 4 mps 768 mmHg 74%
    09:00 +17°C° 0 mm 4 mps 768 mmHg 66%
    10:00 +17°C° 0 mm 5 mps 768 mmHg 60%
    11:00 +19°C° 0 mm 5 mps 767 mmHg 54%
    12:00 +20°C° 0 mm 6 mps 767 mmHg 48%
    13:00 +20°C° 0 mm 6 mps 766 mmHg 48%
    14:00 +19°C° 0 mm 6 mps 766 mmHg 49%
    15:00 +19°C° 0 mm 6 mps 766 mmHg 49%
    16:00 +16°C° 0 mm 5 mps 766 mmHg 56%
    17:00 +15°C° 0 mm 4 mps 766 mmHg 62%
    18:00 +13°C° 0 mm 3 mps 766 mmHg 68%
    19:00 +13°C° 0 mm 3 mps 767 mmHg 72%
    20:00 +12°C° 0 mm 4 mps 767 mmHg 76%
    21:00 +12°C° 0 mm 4 mps 768 mmHg 79%
    22:00 +11°C° 0 mm 4 mps 768 mmHg 79%
    23:00 +11°C° 0 mm 4 mps 768 mmHg 78%

    28 September, Friday

    Time Temperature Precipitation Wind Pressure Humidity
    00:00 +10°C° 0 mm 5 mps 769 mmHg 78%
    01:00 +11°C° 0 mm 4 mps 769 mmHg 78%
    02:00 +10°C° 0 mm 4 mps 769 mmHg 77%
    03:00 +10°C° 0 mm 4 mps 769 mmHg 77%
    04:00 +10°C° 0 mm 4 mps 770 mmHg 77%
    05:00 +8°C° 0 mm 4 mps 770 mmHg 78%
    06:00 +8°C° 0 mm 4 mps 770 mmHg 78%
    07:00 +8°C° 0 mm 4 mps 771 mmHg 75%
    08:00 +10°C° 0 mm 4 mps 771 mmHg 72%
    09:00 +10°C° 0 mm 5 mps 772 mmHg 69%
    10:00 +12°C° 0 mm 5 mps 772 mmHg 66%
    11:00 +12°C° 0 mm 5 mps 772 mmHg 64%
    12:00 +13°C° 0 mm 4 mps 772 mmHg 61%
    13:00 +13°C° 0 mm 4 mps 772 mmHg 61%
    14:00 +13°C° 0 mm 4 mps 772 mmHg 61%
    15:00 +13°C° 0 mm 4 mps 772 mmHg 61%
    16:00 +12°C° 0 mm 4 mps 772 mmHg 65%
    17:00 +10°C° 0 mm 3 mps 772 mmHg 70%
    18:00 +9°C° 0 mm 3 mps 772 mmHg 75%
    19:00 +9°C° 0 mm 3 mps 773 mmHg 77%
    20:00 +8°C° 0 mm 2 mps 773 mmHg 80%
    21:00 +7°C° 0 mm 2 mps 773 mmHg 83%
    22:00 +7°C° 0 mm 2 mps 773 mmHg 84%
    23:00 +8°C° 0 mm 1 mps 773 mmHg 85%

    29 September, Saturday

    Time Temperature Precipitation Wind Pressure Humidity
    00:00 +8°C° 0 mm 1 mps 773 mmHg 87%
    01:00 +7°C° 0 mm 1 mps 773 mmHg 87%
    02:00 +7°C° 0 mm 1 mps 773 mmHg 88%
    03:00 +7°C° 0 mm 1 mps 772 mmHg 88%
    04:00 +7°C° 0 mm 1 mps 772 mmHg 88%
    05:00 +6°C° 0 mm 1 mps 772 mmHg 88%
    06:00 +6°C° 0 mm 1 mps 772 mmHg 88%
    07:00 +8°C° 0 mm 1 mps 772 mmHg 82%
    08:00 +9°C° 0 mm 1 mps 772 mmHg 76%
    09:00 +11°C° 0 mm 1 mps 772 mmHg 70%
    10:00 +12°C° 0 mm 1 mps 771 mmHg 65%
    11:00 +13°C° 0 mm 1 mps 771 mmHg 59%
    12:00 +14°C° 0 mm 1 mps 771 mmHg 54%
    13:00 +14°C° 0 mm 1 mps 770 mmHg 52%
    14:00 +15°C° 0 mm 1 mps 769 mmHg 51%
    15:00 +15°C° 0 mm 1 mps 769 mmHg 49%
    16:00 +14°C° 0 mm 1 mps 769 mmHg 55%
    17:00 +12°C° 0 mm 1 mps 769 mmHg 60%
    18:00 +11°C° 0 mm 1 mps 769 mmHg 65%
    19:00 +10°C° 0 mm 1 mps 769 mmHg 69%
    20:00 +10°C° 0 mm 1 mps 769 mmHg 74%
    21:00 +9°C° 0 mm 1 mps 769 mmHg 78%
    22:00 +8°C° 0 mm 1 mps 768 mmHg 80%
    23:00 +8°C° 0 mm 1 mps 768 mmHg 82%

    30 September, Sunday

    Time Temperature Precipitation Wind Pressure Humidity
    00:00 +8°C° 0 mm 1 mps 768 mmHg 84%
    01:00 +8°C° 0 mm 1 mps 767 mmHg 85%
    02:00 +7°C° 0 mm 1 mps 767 mmHg 85%
    03:00 +7°C° 0 mm 1 mps 767 mmHg 86%
    04:00 +7°C° 0 mm 1 mps 767 mmHg 86%
    05:00 +7°C° 0 mm 1 mps 766 mmHg 86%
    06:00 +7°C° 0 mm 1 mps 766 mmHg 86%
    07:00 +7°C° 0 mm 2 mps 766 mmHg 80%
    08:00 +9°C° 0 mm 2 mps 766 mmHg 75%
    09:00 +10°C° 0 mm 2 mps 766 mmHg 70%
    10:00 +12°C° 0 mm 2 mps 766 mmHg 67%
    11:00 +13°C° 0 mm 2 mps 766 mmHg 64%
    12:00 +14°C° 0 mm 3 mps 766 mmHg 61%
    13:00 +14°C° 0 mm 3 mps 766 mmHg 63%
    14:00 +14°C° 0 mm 3 mps 766 mmHg 64%
    15:00 +14°C° 0 mm 3 mps 766 mmHg 65%
    16:00 +13°C° 0 mm 3 mps 766 mmHg 68%
    17:00 +12°C° 0 mm 3 mps 766 mmHg 70%
    18:00 +11°C° 0 mm 3 mps 767 mmHg 73%
    19:00 +10°C° 0 mm 3 mps 767 mmHg 75%
    20:00 +10°C° 0 mm 3 mps 767 mmHg 77%
    21:00 +9°C° 0 mm 3 mps 767 mmHg 79%
    22:00 +7°C° 0 mm 4 mps 768 mmHg 79%
    23:00 +7°C° 0 mm 4 mps 768 mmHg 80%
    Show more